Back to catalog

SL-16 DEB

AliveLEO
NORAD 22390·DEBRIS·🇷🇺 Russia

Launched Dec 25, 1992 from Baikonur Cosmodrome

Loading…

Next Passes (next 24 hours)

TLE

FreshSource: Space-Track

Epoch: Sep 14, 2026, 07:47 UTC

1 22390U 92093CF  26257.32444514  .00000969  00000-0  59203-3 0  9994
2 22390  71.1728  24.4272 0082853 186.9169 173.0815 14.06674044686046

Track SL-16 DEB in real time with AllMySat

Download on the App Store